Showing default

NOAA 4, 7529

Orbit data source: Space-Track

NOAA 4, 7529 is a payload satellite owned by NOAA (US) in SSO that was launched on Fri, 15 Nov 1974 UTC via a DELTA 2310 launch vehicle from the Air Force Western Test Range (AFWTR). Payloads include a variety of satellites, spacecraft, and rockets equipped with specific instruments for various scientific and technological missions. These include communications satellites like Starlink; space stations such as the ISS; scientific satellites like the Hubble; Earth observation satellites from companies like Planet Labs, Umbra, and HawkEye 360; GPS; miniature CubeSats for education and research; and military/defense satellites.

Loading next visibility...
NOAA 4 details
Identifier
7529, 1974-089A
Orbit
SSO
Last TLE update22 hours ago
Origin
Flag of USNOAA (US)
ManufacturerRCA/East Windsor
MissionNon-operational Civil Weather
Bus & MotorTIROS M, Unknown motor
Mass345 kg wet, 345 kg dry
Launch date (UTC)
1974-11-15 (50 years ago)
Launch vehicle
DELTA 2310
Launch site
Air Force Western Test Range (AFWTR)
Object type
Payload
Rocket body
Debris
Shape & HBRHex Poly + 3 Pan, 1.25 m
Radar Cross Section1.292 m², Large (>1 m²)

Expand to show TLE details & history

TLE from 22 hours ago
0 NOAA 4
1 07529U 74089A   24360.58424390 -.00000027  00000-0  12022-3 0  9991
2 07529 101.9998 356.6896 0009067 142.7688 330.2566 12.53189364292058
Epoch: 2024-12-25T14:01Z
Definitive object data (Epoch: 2024-12-25T14:01:18.672Z)
Latitude64.31861°
Longitude-102.12002°
Altitude1,455.922 km
Speed7.143 km/s
True Right ascension13h 31m 08s
True Declination64° 11' 46"
Sunlit
Object was in daylight at TLE epoch
Visualization TLE readout
Latitude-32.37961°
Longitude-135.01298°
Altitude1,460.833 km
Speed7.132 km/s
Apparent Right ascension12h 15m 47s
Apparent Declination-77° 41' 24"
Sunlit
Object is in daylight
Visualization observer readout
Local Sidereal Time10:59:04
Azimuth175.442° S
Elevation-28.195°
Doppler factor1
Orbital elements
Apogee altitude1,455.837 km
Perigee altitude1,441.644 km
Semi-major axis7,826.877 km
Eccentricity0.0009067
Inclination101.9998°
RAAN356.6896°
Arg. of periapsis142.7688°
True anomaly330.205°
Mean anomaly330.2566°
Eccentric anomaly330.23081°
Mean motion3.13444 °/min
BSTAR0.00012022
Orbital period114.85 mins
Loading maneuver chart data...

NOAA 4 Visibility forecast

Observer location: undefined°, undefined

Span
Click to sort rows by Start time (UTC) header in descending order
Start Az.
Max El. time (UTC)
Max El. Az.
Max El.
End time (UTC)
End Az.
15 mins2024-12-26 13:01:41.918Z17.884° NNE2024-12-26 13:08:41.918Z25.69° NE44.798°2024-12-26 13:16:41.918Z199.587° SSW
9 mins2024-12-26 14:56:41.918Z343.156° N2024-12-26 15:00:41.918Z309.086° NW20.094°2024-12-26 15:05:41.918Z268.02° W
11 mins2024-12-26 22:09:41.918Z102.837° ESE2024-12-26 22:14:41.918Z60.385° ENE24.541°2024-12-26 22:20:41.918Z7.232° NNE
14 mins2024-12-27 00:00:41.918Z172.358° S2024-12-27 00:06:41.918Z230.14° WSW43.184°2024-12-27 00:14:41.918Z337.35° NNW
4 mins2024-12-27 01:59:41.918Z260.281° W2024-12-27 02:01:41.918Z275.081° WNW11.525°2024-12-27 02:03:41.918Z289.539° WNW
|